Torna al catalogo

GLOBALSTAR M091

AttivoComunicazioniLEO
NORAD 37741·PAYLOAD·🇺🇸 United States

Lanciato Jul 13, 2011 da Baikonur Cosmodrome

Loading…

Prossimi Passaggi (prossime 24 ore)

TLE

AggiornatoSource: Space-Track

Epoca: Sep 14, 2026, 14:58 UTC

1 37741U 11033C   26257.62399836 -.00000085  00000-0  10652-3 0  9999
2 37741  52.0018 329.6329 0000613 114.7283  49.5652 12.62264809700570

Traccia GLOBALSTAR M091 in tempo reale con AllMySat

Download on the App Store